Regional Weather Roundup
Issued by NWS

Home | Current Version | Previous Version | Text Only | Print | Product List | Glossary Off
Versions: 1 2 3 4 5 6 7 8 9 10 11 12 13 14 15 16 17 18 19 20 21 22 23 24 25 26 27 28 29 30 31 32 33 34 35 36 37 38 39 40 41 42 43 44 45 46 47 48 49 50

000
ASUS43 KDMX 312107
RWRIA

WEATHER ROUNDUP FOR IOWA
NATIONAL WEATHER SERVICE DES MOINES IA
400 PM CDT THU JUL 31 2014

NOTE: "FAIR" INDICATES FEW OR NO CLOUDS BELOW 12,000 FEET WITH NO
SIGNIFICANT WEATHER AND/OR OBSTRUCTIONS TO VISIBILITY.

* - THESE STATIONS ARE NOT NWS STATIONS...THUS NOT UNDER NWS
QUALITY CONTROL.  THEY ALSO DO NOT REPORT WEATHER SUCH
AS PRECIPITATION OR FOG.

IAZ001>003-012>014-020>022-031>034-043>046-312200-
   NORTHWEST IOWA

CITY           SKY/WX    TMP DP  RH WIND       PRES   REMARKS
CARROLL *      PTSUNNY   73  61  64 W8        30.08F
CHEROKEE *     MOSUNNY   77  59  53 SW10      30.08S
DENISON *      PTSUNNY   70  66  88 CALM      30.07S
LE MARS *      PTSUNNY   73  57  56 S6        30.08F
ORANGE CITY *  SUNNY     79  59  50 SW7       30.08S HX  80
SHELDON *      PTSUNNY   77  61  57 SW7       30.06F
SIOUX CITY     MOSUNNY   73  62  68 E8        30.06F
SPENCER        CLOUDY    77  59  53 CALM      30.06F
STORM LAKE *   SUNNY     75  61  60 SW9       30.09F
$$

IAZ055>058-069>071-079>083-090>094-312200-
   SOUTHWEST IOWA

CITY           SKY/WX    TMP DP  RH WIND       PRES   REMARKS
ATLANTIC *     MOSUNNY   81  57  44 S6        30.06F HX  81
AUDUBON *      MOSUNNY   75  66  73 N3        30.09F
CLARINDA *     SUNNY     82  55  39 S6        30.08F HX  82
COUNCIL BLFS * SUNNY     81  61  50 SE6       30.05S HX  81
CRESTON *      SUNNY     81  54  39 CALM      30.08F HX  80
HARLAN  *      CLOUDY    79  59  50 CALM      30.10F HX  80
LAMONI         PTSUNNY   78  54  43 SW6       30.08F
RED OAK *      MOSUNNY   81  59  47 VRB5G12   30.06F HX  81
SHENANDOAH *   PTSUNNY   82  57  42 S8        30.06F HX  82
$$

IAZ047>049-059>061-072>074-084-312200-
   CENTRAL IOWA

CITY           SKY/WX    TMP DP  RH WIND       PRES   REMARKS
AMES           SUNNY     81  58  45 SW8       30.06F HX  81
ANKENY *       MOSUNNY   81  55  41 VRB5G14   30.06F HX  80
CHARITON *     MOSUNNY   81  55  41 SW7       30.07F HX  80
DES MOINES     MOSUNNY   83  56  39 W8        30.05F HX  82
GRINNELL*      MOSUNNY   79  57  47 SW5       30.07F HX  80
KNOXVILLE *    MOSUNNY   79  57  47 VRB5      30.06S HX  80
MARSHALLTOWN   MOSUNNY   78  59  51 W6        30.06F
PELLA *        SUNNY     82  59  44 NW6       30.08F HX  82
PERRY *          N/A     77  59  53 CALM      30.06F
$$

IAZ004>006-015-016-023>025-035-036-312200-
   NORTH CENTRAL IOWA

CITY           SKY/WX    TMP DP  RH WIND       PRES   REMARKS
ALGONA *       SUNNY     79  55  44 CALM      30.06F
CLARION *      MOSUNNY   81  55  41 W8        30.06F HX  80
ESTHERVILLE    PTSUNNY   78  57  48 W6        30.05F
FORT DODGE *   MOSUNNY   79  57  47 SW7       30.07F HX  80
MASON CITY     MOSUNNY   80  56  43 W10       30.07F HX  80
FOREST CITY *  MOSUNNY   79  55  44 W3        30.06F
IOWA FALLS *     N/A     77  55  47 W3        30.07F
$$

IAZ007>011-017>019-026>030-037>042-050>054-066-312200-
   NORTHEAST IOWA

CITY           SKY/WX    TMP DP  RH WIND       PRES   REMARKS
CEDAR RAPIDS   MOSUNNY   79  60  52 W8        30.05F HX  80
CHARLES CITY * PTSUNNY   75  61  60 NW6       30.06S
CLINTON *      MOSUNNY   79  61  53 NW8       30.08F HX  80
DECORAH *      SUNNY     75  57  53 CALM      30.04S
DUBUQUE        MOSUNNY   78  58  49 W10       30.05F
MONTICELLO *   SUNNY     81  57  44 W7G15     30.05S HX  81
OELWEIN *      MOSUNNY   79  57  47 W9        30.06S HX  80
WATERLOO       MOSUNNY   81  55  40 W8        30.04F HX  81
$$

IAZ064-065-067-068-078-312200-
   EAST CENTRAL IOWA

CITY           SKY/WX    TMP DP  RH WIND       PRES   REMARKS
DAVENPORT      SUNNY     80  59  48 W8        30.06F HX  81
IOWA CITY      SUNNY     79  60  52 W7        30.06F HX  80
MT. PLEASANT * MOSUNNY   81  59  47 SW5       30.07S HX  81
MUSCATINE *    MOSUNNY   82  57  42 NW9       30.05F HX  82
QUAD CITIES    MOSUNNY   81  58  45 SW8       30.04F HX  81
$$

IAZ062-063-075>077-085>089-095>099-312200-
   SOUTHEAST IOWA

CITY           SKY/WX    TMP DP  RH WIND       PRES   REMARKS
BURLINGTON     MOSUNNY   80  59  48 SW8       30.06F HX  81
FAIRFIELD *    MOSUNNY   81  61  50 VRB7      30.07F HX  81
FORT MADISON * SUNNY     82  61  47 W3        30.08S HX  83
KEOKUK *       MOSUNNY   81  59  47 CALM      30.07S HX  81
OSKALOOSA *    PTSUNNY   81  59  47 W3        30.07S HX  81
CENTERVILLE *  SUNNY     82  59  44 W7        30.09F HX  82
OTTUMWA        MOSUNNY   80  59  48 MISG      30.06S HX  81
WASHINGTON *   SUNNY     81  63  54 W8        30.06F HX  82
$$

ABBREVIATIONS USED IN REMARKS
   TC - TEMPERATURES IN CELSIUS
  WCI - WIND CHILL INDEX
   HX - HEAT INDEX
  VSB - VISIBILITY
$$



USA.gov is the U.S. government's official web portal to all federal, state and local government web resources and services.